Simultaneous Nadir Overpasses (SNOs) Predictions

Prediction of SNOs between AQUA and GOES-15 Satellite Orbit:

Table of predicted SNOs for the next 14.0 days since TLE Epoch: 2/16/2018
Index Date Time (AQUA) AQUA Lat,Lon GOES-15 Lat,Lon Distance(km) Time Diff (sec)
1 02/18/2018 10:32:27 -0.31,-134.13 -0.01,-135.44 149.11 80
2 02/18/2018 22:53:51 -0.85,-139.31 0.00,-135.42 442.69 80
3 02/20/2018 10:20:17 -0.95,-131.18 -0.01,-135.44 485.59 80
4 02/20/2018 22:41:41 -0.21,-136.36 0.01,-135.43 106.35 80
5 02/22/2018 22:29:31 0.43,-133.40 0.01,-135.42 229.27 80
6 02/23/2018 10:50:47 0.64,-138.56 -0.00,-135.43 355.59 80
7 02/25/2018 10:38:36 0.06,-135.60 0.00,-135.41 21.12 80
8 02/27/2018 10:26:26 -0.59,-132.64 0.00,-135.39 312.89 80
9 02/27/2018 22:47:50 -0.56,-137.83 -0.00,-135.37 279.58 80
10 03/01/2018 22:35:40 0.10,-134.87 -0.00,-135.35 54.01 80




NCC Satellite Simultaneous Nadir Overpasses (SNOs) Prediction Service
